Weather History for KJAS - March, 2013

Change the Weather History Date:

Friday, March 22, 2013

  Actual Average (KLFK) Record (KLFK)
Temperature  
Mean Temperature 72 °F 61 °F  
Max Temperature 84 °F 73 °F 89 °F (1910)
Min Temperature 61 °F 49 °F 24 °F (1915)
Degree Days  
Heating Degree Days 0 6  
Month to date heating degree days 168  
Since 1 July heating degree days 1802  
Cooling Degree Days 8 2  
Month to date cooling degree days 23  
Year to date cooling degree days 42  
Growing Degree Days 22 (Base 50)    
Moisture  
Dew Point 63 °F    
Average Humidity 76    
Maximum Humidity 92    
Minimum Humidity 48    
Precipitation  
Precipitation 0.00 in 0.12 in 1.46 in (1912)
Month to date precipitation 2.74  
Year to date precipitation 10.79  
Snow  
Snow 0.00 in - - ()
Month to date snowfall  
Since 1 July snowfall  
Snow Depth -    
Sea Level Pressure  
Sea Level Pressure 29.75 in    
Wind  
Wind Speed 6 mph (SSE)    
Max Wind Speed 12 mph    
Max Gust Speed 17 mph    
Visibility 9 miles    
Events      
T = Trace of Precipitation, MM = Missing Value Source: NWS Daily Summary

Daily Weather History Graph

Daily Weather History Graph

Search for Another Location

Airport or City:

Trip Planner

Search our weather history database for the weather conditions in past years. The results will help you decide how hot, cold, wet, or windy it might be!

Date:

Astronomy

Mar. 22, 2013 Rise Set
Actual Time 7:17 AM CDT 7:29 PM CDT
Civil Twilight 6:53 AM CDT 7:53 PM CDT
Nautical Twilight 6:24 AM CDT 8:21 PM CDT
Astronomical Twilight 5:56 AM CDT 8:49 PM CDT
Moon 3:12 PM CDT 4:01 AM CDT
Length of Visible Light 13h 00m
Length of Day
12h 11m
Waxing Gibbous, 77% of the Moon is Illuminated
Mar 22
Waxing Gibbous
Mar 27
Full
Apr 2
Last Quarter
Apr 10
New
Apr 18
First Quarter

Hourly Weather History & Observations

Time (CDT) Temp. Heat Index Dew Point Humidity Pressure Visibility Wind Dir Wind Speed Gust Speed Precip Events Conditions
12:15 AM 61.5 °F - 53.2 °F 74% 29.80 in 10.0 mi SE 10.4 mph - N/A   Overcast
12:35 AM 61.7 °F - 53.2 °F 74% 29.78 in 10.0 mi ESE 9.2 mph - N/A   Overcast
12:55 AM 61.5 °F - 53.1 °F 74% 29.77 in 10.0 mi ESE 9.2 mph - N/A   Overcast
1:15 AM 61.5 °F - 53.1 °F 74% 29.76 in 10.0 mi ESE 9.2 mph - N/A   Overcast
1:35 AM 61.3 °F - 53.2 °F 75% 29.75 in 10.0 mi SE 5.8 mph 9.2 mph N/A   Mostly Cloudy
1:55 AM 61.0 °F - 53.4 °F 76% 29.75 in 10.0 mi SE 5.8 mph - N/A   Mostly Cloudy
2:15 AM 61.2 °F - 54.0 °F 77% 29.75 in 10.0 mi SE 5.8 mph - N/A   Overcast
2:35 AM 61.5 °F - 54.5 °F 78% 29.74 in 10.0 mi SSE 4.6 mph - N/A   Mostly Cloudy
2:55 AM 61.5 °F - 55.2 °F 80% 29.73 in 10.0 mi SSE 3.5 mph - N/A   Overcast
3:15 AM 61.7 °F - 56.1 °F 82% 29.73 in 10.0 mi South 6.9 mph - N/A   Overcast
3:35 AM 62.1 °F - 57.0 °F 84% 29.72 in 10.0 mi SSE 5.8 mph - N/A   Overcast
3:55 AM 62.6 °F - 57.9 °F 85% 29.71 in 10.0 mi SSE 6.9 mph - N/A   Overcast
4:15 AM 63.3 °F - 58.8 °F 85% 29.71 in 10.0 mi South 5.8 mph - N/A   Overcast
4:35 AM 63.5 °F - 59.4 °F 86% 29.71 in 10.0 mi SE 3.5 mph - N/A   Overcast
4:55 AM 63.9 °F - 59.9 °F 87% 29.72 in 10.0 mi Calm Calm - N/A   Overcast
5:15 AM 64.0 °F - 60.1 °F 87% 29.73 in 10.0 mi SE 4.6 mph - N/A   Overcast
5:35 AM 64.0 °F - 60.4 °F 88% 29.73 in 10.0 mi ESE 3.5 mph - N/A   Overcast
5:55 AM 64.0 °F - 60.8 °F 89% 29.73 in 7.0 mi Calm Calm - N/A   Overcast
6:15 AM 64.2 °F - 60.8 °F 89% 29.73 in 7.0 mi ESE 3.5 mph - N/A   Overcast
6:35 AM 64.0 °F - 60.8 °F 89% 29.73 in 7.0 mi ESE 3.5 mph - N/A   Overcast
6:55 AM 63.5 °F - 60.4 °F 90% 29.74 in 7.0 mi ESE 4.6 mph - N/A   Overcast
7:15 AM 63.5 °F - 60.3 °F 89% 29.75 in 7.0 mi Calm Calm - N/A   Overcast
7:35 AM 63.5 °F - 60.4 °F 90% 29.75 in 7.0 mi ESE 5.8 mph - N/A   Overcast
7:55 AM 63.7 °F - 61.0 °F 91% 29.75 in 7.0 mi ESE 4.6 mph - N/A   Overcast
8:15 AM 64.4 °F - 61.7 °F 91% 29.76 in 7.0 mi ESE 4.6 mph - N/A   Overcast
8:35 AM 65.1 °F - 62.4 °F 91% 29.77 in 7.0 mi Calm Calm - N/A   Overcast
8:55 AM 66.0 °F - 63.0 °F 90% 29.79 in 7.0 mi Calm Calm - N/A   Overcast
9:15 AM 66.7 °F - 63.3 °F 89% 29.79 in 7.0 mi Calm Calm - N/A   Overcast
9:35 AM 67.1 °F - 63.5 °F 88% 29.79 in 7.0 mi ESE 3.5 mph - N/A   Overcast
9:55 AM 68.4 °F - 64.2 °F 87% 29.79 in 7.0 mi SE 4.6 mph - N/A   Overcast
10:15 AM 70.7 °F - 65.5 °F 83% 29.79 in 7.0 mi South 5.8 mph - N/A   Overcast
10:35 AM 72.0 °F - 66.2 °F 82% 29.80 in 7.0 mi South 9.2 mph - N/A   Overcast
10:55 AM 73.0 °F - 66.4 °F 80% 29.80 in 10.0 mi South 8.1 mph - N/A   Overcast
11:15 AM 73.9 °F - 66.4 °F 77% 29.80 in 10.0 mi South 4.6 mph - N/A   Overcast
11:35 AM 74.5 °F - 66.4 °F 76% 29.80 in 10.0 mi South 6.9 mph - N/A   Overcast
11:55 AM 75.0 °F - 66.6 °F 75% 29.79 in 10.0 mi South 3.5 mph - N/A   Overcast
12:15 PM 76.3 °F - 66.6 °F 72% 29.78 in 10.0 mi SSW 8.1 mph - N/A   Overcast
12:35 PM 77.7 °F - 66.4 °F 68% 29.78 in 10.0 mi SSW 8.1 mph - N/A   Overcast
12:55 PM 79.5 °F - 66.6 °F 64% 29.77 in 10.0 mi SSW 11.5 mph 17.3 mph N/A   Mostly Cloudy
1:15 PM 81.0 °F 83.0 °F 65.8 °F 60% 29.76 in 10.0 mi SW 9.2 mph - N/A   Mostly Cloudy
1:35 PM 81.5 °F 83.3 °F 64.9 °F 57% 29.75 in 10.0 mi SSW 10.4 mph - N/A   Mostly Cloudy
1:55 PM 83.7 °F 85.1 °F 64.2 °F 52% 29.73 in 10.0 mi SSE 9.2 mph - N/A   Mostly Cloudy
2:15 PM 83.7 °F 84.7 °F 63.3 °F 50% 29.72 in 10.0 mi SSW 9.2 mph - N/A   Mostly Cloudy
2:35 PM 84.2 °F 85.2 °F 63.1 °F 49% 29.70 in 10.0 mi SSW 8.1 mph - N/A   Scattered Clouds
2:55 PM 83.8 °F 84.7 °F 62.6 °F 49% 29.70 in 10.0 mi SSW 8.1 mph - N/A   Scattered Clouds
3:15 PM 84.9 °F 85.9 °F 63.0 °F 48% 29.69 in 10.0 mi South 8.1 mph - N/A   Scattered Clouds
3:35 PM 83.5 °F 84.7 °F 63.5 °F 51% 29.69 in 10.0 mi SSW 5.8 mph 9.2 mph N/A   Mostly Cloudy
3:55 PM 83.3 °F 84.6 °F 64.0 °F 52% 29.68 in 10.0 mi SSE 8.1 mph - N/A   Mostly Cloudy
4:15 PM 82.9 °F 84.4 °F 64.4 °F 53% 29.69 in 10.0 mi SE 10.4 mph - N/A   Mostly Cloudy
4:35 PM 83.1 °F 84.6 °F 64.6 °F 53% 29.69 in 10.0 mi SE 4.6 mph - N/A   Overcast
4:55 PM 82.8 °F 84.5 °F 65.1 °F 55% 29.69 in 10.0 mi SSE 10.4 mph 16.1 mph N/A   Mostly Cloudy
5:15 PM 81.9 °F 84.1 °F 66.0 °F 59% 29.70 in 10.0 mi South 10.4 mph 16.1 mph N/A   Mostly Cloudy
5:35 PM 82.4 °F 84.6 °F 66.2 °F 58% 29.69 in 10.0 mi South 11.5 mph - N/A   Scattered Clouds
5:55 PM 81.9 °F 84.1 °F 66.2 °F 59% 29.70 in 10.0 mi South 11.5 mph 17.3 mph N/A   Scattered Clouds
6:15 PM 80.6 °F 82.9 °F 66.7 °F 63% 29.70 in 10.0 mi South 8.1 mph - N/A   Scattered Clouds
6:35 PM 79.5 °F - 67.1 °F 66% 29.71 in 10.0 mi South 8.1 mph - N/A   Mostly Cloudy
6:55 PM 79.0 °F - 67.1 °F 67% 29.72 in 10.0 mi SSE 6.9 mph 17.3 mph N/A   Mostly Cloudy
7:15 PM 78.4 °F - 67.1 °F 68% 29.72 in 10.0 mi SSE 6.9 mph - N/A   Mostly Cloudy
7:35 PM 77.4 °F - 67.1 °F 71% 29.73 in 10.0 mi SSE 3.5 mph - N/A   Mostly Cloudy
7:55 PM 76.5 °F - 67.1 °F 73% 29.74 in 10.0 mi SSE 3.5 mph - N/A   Scattered Clouds
8:15 PM 75.4 °F - 67.1 °F 75% 29.74 in 10.0 mi SSE 4.6 mph - N/A   Scattered Clouds
8:35 PM 74.7 °F - 67.1 °F 77% 29.75 in 10.0 mi Calm Calm - N/A   Scattered Clouds
8:55 PM 73.8 °F - 67.1 °F 80% 29.75 in 10.0 mi SSE 3.5 mph - N/A   Scattered Clouds
9:15 PM 73.0 °F - 67.1 °F 82% 29.76 in 7.0 mi SSE 5.8 mph - N/A   Clear
9:35 PM 72.7 °F - 67.1 °F 83% 29.77 in 7.0 mi SSE 3.5 mph - N/A   Clear
9:55 PM 72.0 °F - 67.3 °F 85% 29.78 in 7.0 mi South 3.5 mph - N/A   Clear
10:15 PM 71.6 °F - 67.3 °F 86% 29.78 in 7.0 mi Calm Calm - N/A   Clear
10:35 PM 71.1 °F - 67.3 °F 88% 29.78 in 7.0 mi Calm Calm - N/A   Mostly Cloudy
10:55 PM 70.3 °F - 67.3 °F 90% 29.79 in 7.0 mi Calm Calm - N/A   Scattered Clouds
11:15 PM 69.6 °F - 66.9 °F 91% 29.79 in 7.0 mi Calm Calm - N/A   Mostly Cloudy
11:35 PM 69.1 °F - 66.6 °F 92% 29.78 in 7.0 mi Calm Calm - N/A   Scattered Clouds
11:55 PM 68.7 °F - 66.4 °F 92% 29.78 in 5.0 mi Calm Calm - N/A   Scattered Clouds